[TLELIST] Archives

 

[TLELIST] Current TLEs

December 16th 2025 PST

0 HST 1 20580U 90037B 25349.92697688 .00005667 00000-0 19308-3 0 9990 2 20580 28.4681 250.7951 0001831 280.0887 79.9502 15.28099791760489 0 ISS (ZARYA) 1 25544U 98067A 25349.89461712 .00006813 00000-0 12896-3 0 9998 2 25544 51.6305 126.8563 0003169 254.4589 105.6050 15.49611341543340 0 CXO 1 25867U 99040B 25351.90728450 .00000514 00000-0 00000-0 0 9991 2 25867 53.1169 122.3471 8128116 310.8350 0.1965 0.37801682 16634 ...Continue Reading

[TLELIST] Current TLEs

December 15th 2025 PST

0 HST 1 20580U 90037B 25348.81671679 .00006498 00000-0 22258-3 0 9990 2 20580 28.4683 258.3524 0001798 266.6247 93.4143 15.28088062760316 0 ISS (ZARYA) 1 25544U 98067A 25348.86277765 .00007299 00000-0 13766-3 0 9993 2 25544 51.6306 131.9662 0003207 249.8734 110.1909 15.49595360543189 0 CXO 1 25867U 99040B 25349.26321703 .00000427 00000-0 00000-0 0 9990 2 25867 53.0917 122.4070 8132318 310.8570 0.2053 0.37806491 16624 ...Continue Reading

[TLELIST] Current TLEs

December 14th 2025 PST

0 HST 1 20580U 90037B 25347.18396407 .00010978 00000-0 38148-3 0 9995 2 20580 28.4685 269.4662 0001791 244.6720 115.3690 15.28062026760064 0 ISS (ZARYA) 1 25544U 98067A 25347.89541822 .00011998 00000-0 22109-3 0 9995 2 25544 51.6304 136.7564 0003257 246.2023 113.8624 15.49578000543038 0 CXO 1 25867U 99040B 25349.26321703 .00000427 00000-0 00000-0 0 9990 2 25867 53.0917 122.4070 8132318 310.8570 0.2053 0.37806491 16624 ...Continue Reading

[TLELIST] Current TLEs

December 13th 2025 PST

0 HST 1 20580U 90037B 25346.98803157 .00010337 00000-0 35884-3 0 9990 2 20580 28.4685 270.7996 0001785 242.3546 117.6868 15.28057436760031 0 ISS (ZARYA) 1 25544U 98067A 25346.86355306 .00014033 00000-0 25741-3 0 9999 2 25544 51.6304 141.8664 0003245 240.6311 119.4354 15.49550036542873 0 CXO 1 25867U 99040B 25349.26321703 .00000427 00000-0 00000-0 0 9990 2 25867 53.0917 122.4070 8132318 310.8570 0.2053 0.37806491 16624 ...Continue Reading

[TLELIST] Current TLEs

December 12th 2025 PST

0 HST 1 20580U 90037B 25346.20429649 .00011165 00000-0 38838-3 0 9997 2 20580 28.4685 276.1346 0001817 231.5243 128.5189 15.28040404759919 0 ISS (ZARYA) 1 25544U 98067A 25346.15413386 .00014398 00000-0 26408-3 0 9999 2 25544 51.6307 145.3792 0003284 237.6977 122.3694 15.49529746542766 0 CXO 1 25867U 99040B 25343.97594738 .00000473 00000-0 00000-0 0 9993 2 25867 53.0333 122.5432 8145103 310.8822 0.4254 0.37805522 16602 ...Continue Reading

[TLELIST] Current TLEs

December 12th 2025 PST

0 HST 1 20580U 90037B 25346.20429649 .00011165 00000-0 38838-3 0 9997 2 20580 28.4685 276.1346 0001817 231.5243 128.5189 15.28040404759919 0 ISS (ZARYA) 1 25544U 98067A 25346.15413386 .00014398 00000-0 26408-3 0 9999 2 25544 51.6307 145.3792 0003284 237.6977 122.3694 15.49529746542766 0 CXO 1 25867U 99040B 25343.97594738 .00000473 00000-0 00000-0 0 9993 2 25867 53.0333 122.5432 8145103 310.8822 0.4254 0.37805522 16602 ...Continue Reading

[TLELIST] Current TLEs

December 11th 2025 PST

0 HST 1 20580U 90037B 25345.22461499 .00013114 00000-0 45771-3 0 9997 2 20580 28.4689 282.8025 0001816 220.1397 139.9064 15.28018696759763 0 ISS (ZARYA) 1 25544U 98067A 25345.18672918 .00016503 00000-0 30174-3 0 9994 2 25544 51.6309 150.1691 0003334 234.1557 125.9122 15.49499993542611 0 CXO 1 25867U 99040B 25343.97594738 .00000473 00000-0 00000-0 0 9993 2 25867 53.0333 122.5432 8145103 310.8822 0.4254 0.37805522 16602 ...Continue Reading

[TLELIST] Current TLEs

December 10th 2025 PST

0 HST 1 20580U 90037B 25344.17960443 .00010729 00000-0 37347-3 0 9992 2 20580 28.4692 289.9149 0001836 207.5620 152.4878 15.27993349759604 0 ISS (ZARYA) 1 25544U 98067A 25344.15480881 .00014837 00000-0 27248-3 0 9992 2 25544 51.6306 155.2782 0003395 228.7876 131.2820 15.49465664542450 0 CXO 1 25867U 99040B 25343.97594738 .00000473 00000-0 00000-0 0 9993 2 25867 53.0333 122.5432 8145103 310.8822 0.4254 0.37805522 16602 ...Continue Reading

[TLELIST] Current TLEs

December 9th 2025 PST

0 HST 1 20580U 90037B 25343.19989290 .00010184 00000-0 35435-3 0 9995 2 20580 28.4695 296.5825 0001856 196.3317 163.7219 15.27973320759456 0 ISS (ZARYA) 1 25544U 98067A 25343.18736383 .00013707 00000-0 25261-3 0 9993 2 25544 51.6308 160.0685 0003366 223.6321 136.4401 15.49438460542305 0 CXO 1 25867U 99040B 25343.97594738 .00000473 00000-0 00000-0 0 9993 2 25867 53.0333 122.5432 8145103 310.8822 0.4254 0.37805522 16602 ...Continue Reading

[TLELIST] Current TLEs

December 9th 2025 PST

0 HST 1 20580U 90037B 25343.19989290 .00010184 00000-0 35435-3 0 9995 2 20580 28.4695 296.5825 0001856 196.3317 163.7219 15.27973320759456 0 ISS (ZARYA) 1 25544U 98067A 25343.18736383 .00013707 00000-0 25261-3 0 9993 2 25544 51.6308 160.0685 0003366 223.6321 136.4401 15.49438460542305 0 CXO 1 25867U 99040B 25343.97594738 .00000473 00000-0 00000-0 0 9993 2 25867 53.0333 122.5432 8145103 310.8822 0.4254 0.37805522 16602 ...Continue Reading
  • This mailing list is a public mailing list - anyone may join or leave, at any time.
  • This mailing list is announce-only.

International Space Station (ISS) / Hubble Space Telescope (HST) / Chandra X-Ray Observatory Orbital Data via EMAIL

Privacy Policy:

Private list